Regional Weather Roundup
Issued by NWS

Home | Current Version | Previous Version | Text Only | Print | Product List | Glossary Off
Versions: 1 2 3 4 5 6 7 8 9 10 11 12 13 14 15 16 17 18 19 20 21 22 23 24 25 26 27 28 29 30 31 32 33 34 35 36 37 38 39 40 41 42 43 44 45 46 47 48 49 50

000
ASUS45 KSLC 232010
RWRUT

UTAH REGIONAL WEATHER ROUNDUP
NATIONAL WEATHER SERVICE SALT LAKE CITY UT
200 PM MDT SAT MAY 23 2015

UTZ001>011-023>025-232100-

NORTHERN UTAH

CITY           SKY/WX    TMP DP  RH WIND       PRES   REMARKS
BRIGHAM CITY   CLOUDY    56  45  66 N3        29.95F
HILL AFB       PTSUNNY   55  47  74 NW10      29.94S
LOGAN          CLOUDY    56  44  64 NW8       29.94F
OGDEN          CLOUDY    55  47  74 W6        29.94S
PROVO AIRPORT  LGT RAIN  52  45  76 W9        29.95R
SALT LAKE CITY CLOUDY    57  45  64 NW12      29.93F
VERNAL         PTSUNNY   58  35  42 W8        29.96F
WENDOVER       CLOUDY    52  52 100 SE16      29.95S
HEBER CITY     PTSUNNY   54  37  54 W14       29.92F
WEST JORDAN    MOSUNNY   55  45  67 N7        29.93F

$$

UTZ012>022-026-027-232100-

SOUTHERN/CENTRAL UTAH

CITY           SKY/WX    TMP DP  RH WIND       PRES   REMARKS
BLANDING       CLOUDY    48  38  70 SW15G21   30.10S
BRYCE CANYON   CLOUDY    43  39  86 SW9       30.02S
CEDAR CITY     LGT RAIN  51  42  71 S14       29.98F
DELTA          CLOUDY    53  39  58 S7        29.96S
HANKSVILLE     CLOUDY    55  39  54 S3        29.98S
MILFORD        LGT RAIN  50  46  86 S9        29.96S
MOAB/CYNLANDS  PTSUNNY   60  33  36 E10       29.94F
PRICE          PTSUNNY   52  38  58 W8        29.98R
ST GEORGE      MOCLDY    66  43  42 E5        29.98F
KANAB          CLOUDY    48  46  93 S6        30.06F

$$

REGIONAL REPORTS     COLORADO/ARIZONA

CITY           SKY/WX    TMP DP  RH WIND       PRES   REMARKS
CRAIG, CO      PTSUNNY   56  38  50 W18       29.96S
GRAND JUNCTION CLOUDY    61  32  33 VRB6      29.92S
RIFLE          PTSUNNY   59  34  39 CALM      29.93F
MONTROSE       CLOUDY    52  38  58 NW6       30.04R
CORTEZ         PTSUNNY   56  32  40 SW16      30.03R
PAGE, AZ       CLOUDY    55  43  63 S7        30.00F
GRAND CANYON   LGT RAIN  44  42  93 N3        30.07S
KINGMAN        MOSUNNY   71  37  28 SW15G22   29.99F
FLAGSTAFF      CLOUDY    51  34  52 SW20G25   30.09F

$$

REGIONAL REPORTS    NEVADA/IDAHO/WYOMING

CITY           SKY/WX    TMP DP  RH WIND       PRES   REMARKS
LAS VEGAS, NV  MOSUNNY   77  39  25 S15       29.86F
ELY            CLOUDY    53  43  68 NW9       29.98F
ELKO           CLOUDY    58  46  64 NW7       29.96S
POCATELLO, ID  CLOUDY    54  52  93 S15       29.92F
BURLEY         PTSUNNY   62  50  64 CALM      29.89F
EVANSTON, WY   LGT RAIN  42  36  79 S20G33    29.98R
ROCK SPRINGS   CLOUDY    52  40  63 N10       29.96S
KEMMERER       PTSUNNY   55  37  50 NW6       29.98S

$$


USA.gov is the U.S. government's official web portal to all federal, state and local government web resources and services.